Regional Weather Roundup
Issued by NWS

Home | Current Version | Previous Version | Text Only | Print | Product List | Glossary On
Versions: 1 2 3 4 5 6 7 8 9 10 11 12 13 14 15 16 17 18 19 20 21 22 23 24 25 26 27 28 29 30 31 32 33 34 35 36 37 38 39 40 41 42 43 44 45 46 47 48 49 50
000
ASUS43 KDMX 211206
RWRIA

WEATHER ROUNDUP FOR IOWA
NATIONAL WEATHER SERVICE DES MOINES IA
600 AM CST TUE FEB 21 2017

NOTE: "FAIR" INDICATES FEW OR NO CLOUDS BELOW 12,000 FEET WITH NO
SIGNIFICANT WEATHER AND/OR OBSTRUCTIONS TO VISIBILITY.

* - THESE STATIONS ARE NOT NWS STATIONS...THUS NOT UNDER NWS
QUALITY CONTROL.  THEY ALSO DO NOT REPORT WEATHER SUCH
AS PRECIPITATION OR FOG.

IAZ001>003-012>014-020>022-031>034-043>046-211300-
   NORTHWEST IOWA

CITY           SKY/WX    TMP DP  RH WIND       PRES   REMARKS
CARROLL *      CLEAR     32  32 100 W7        29.94R WCI  26
CHEROKEE *     CLEAR     28  28 100 CALM      29.94S FOG
DENISON *      MOCLDY    28  28 100 CALM      29.94R FOG
LE MARS *      MIX PCPN  30  30 100 SW5       29.94S WCI  25
SHELDON *      CLEAR     36  36 100 S7        29.90S WCI  30
SIOUX CITY     CLEAR     33  30  88 E5        29.95R WCI  29
6HR MIN TEMP:  30; 6HR MAX TEMP:  40;

SPENCER        CLEAR     34  33  96 SW6       29.92S WCI  29
6HR MIN TEMP:  32; 6HR MAX TEMP:  38;

STORM LAKE *   CLEAR     37  36  93 W9        29.94R WCI  31
$$

IAZ055>058-069>071-079>083-090>094-211300-
   SOUTHWEST IOWA

CITY           SKY/WX    TMP DP  RH WIND       PRES   REMARKS
ATLANTIC *     FOG       30  30 100 CALM      29.97R VSB<1/4
CLARINDA *     FOG       32  32 100 CALM      29.99S VSB<1/4
COUNCIL BLFS * FOG       39  39 100 SW7       29.96S VSB 1/4 WCI  34
CRESTON *      CLEAR     36  36 100 SE5       29.98R WCI  32
HARLAN  *      FOG       30  30 100 CALM      29.98F VSB 1/4
LAMONI         CLOUDY    42  40  92 NE6       29.96S
6HR MIN TEMP:  42; 6HR MAX TEMP:  53;

RED OAK *      FOG       32  32 100 CALM      29.97S VSB 1/4
SHENANDOAH *   FOG       34  34 100 CALM      29.98S VSB 1/4
$$

IAZ047>049-059>061-072>074-084-211300-
   CENTRAL IOWA

CITY           SKY/WX    TMP DP  RH WIND       PRES   REMARKS
AMES           FOG       32  32 100 CALM      29.94F VSB 1/4
6HR MIN TEMP:  31; 6HR MAX TEMP:  47;

ANKENY *       FOG       32  32 100 SE5       29.96F VSB<1/4 WCI  27
BOONE *        FOG       32  32 100 CALM      29.93S VSB 1/4
CHARITON *     MOCLDY    43  41  93 NW5       29.96S
DES MOINES     CLEAR     39  37  92 S6        29.95F WCI  35
6HR MIN TEMP:  38; 6HR MAX TEMP:  52;

GRINNELL*        N/A     39  38  97 CALM      29.96F FOG
KNOXVILLE *    FOG       43  41  93 W3        29.94F VSB 3/4
MARSHALLTOWN   FOG       33  33 100 S3        29.94S VSB 1/4
6HR MIN TEMP:  32; 6HR MAX TEMP:  46;

NEWTON *       FOG       37  37 100 CALM      29.94F VSB<1/4
PELLA *        FOG       41  41  99 CALM      29.96F VSB 3/4
PERRY *          N/A     35  34  97 S3        29.94F FOG
$$

IAZ004>006-015-016-023>025-035-036-211300-
   NORTH CENTRAL IOWA

CITY           SKY/WX    TMP DP  RH WIND       PRES   REMARKS
ALGONA *       CLEAR     34  34 100 SW7       29.92R FOG     WCI  28
CLARION *      FOG       32  32 100 S3        29.93S VSB 1/4
ESTHERVILLE    CLEAR     35  35 100 SW9       29.90S WCI  28
6HR MIN TEMP:  32; 6HR MAX TEMP:  39;

FORT DODGE *     N/A     32  27  80 CALM      29.93S VSB 3/4
MASON CITY     FOG       31  29  92 S3        29.93S VSB 1/4
6HR MIN TEMP:  30; 6HR MAX TEMP:  39;

FOREST CITY *  FOG       28  28 100 CALM      29.92S VSB<1/4
IOWA FALLS *     N/A     34  33  96 SE3       29.94S FOG
$$

IAZ007>011-017>019-026>030-037>042-050>054-066-211300-
   NORTHEAST IOWA

CITY           SKY/WX    TMP DP  RH WIND       PRES   REMARKS
CEDAR RAPIDS   CLOUDY    37  37 100 NW6       29.94S WCI  32
6HR MIN TEMP:  37; 6HR MAX TEMP:  55;

CHARLES CITY * MIX PCPN  34  34 100 SW5       29.94R VSB 1/4 WCI  30
CLINTON *      CLOUDY    45  44  97 NW3       29.95R
DECORAH *      CLEAR     37  36  93 CALM      29.92S FOG
DUBUQUE        PTCLDY    41  39  93 N5        29.93F
6HR MIN TEMP:  41; 6HR MAX TEMP:  53;

MONTICELLO *   PTCLDY    39  39 100 CALM      29.94S FOG
OELWEIN *      FOG       32  32 100 CALM      29.94S VSB<1/4
WATERLOO       FOG       28  27  96 CALM      29.94F VSB 1/4
6HR MIN TEMP:  28; 6HR MAX TEMP:  48;

$$

IAZ064-065-067-068-078-211300-
   EAST CENTRAL IOWA

CITY           SKY/WX    TMP DP  RH WIND       PRES   REMARKS
DAVENPORT      CLOUDY    47  45  93 NW6       29.95S
6HR MIN TEMP:  47; 6HR MAX TEMP:  57; 6HR PCP: TRACE;

IOWA CITY      CLOUDY    46  42  86 CALM      29.96S
6HR MIN TEMP:  46; 6HR MAX TEMP:  56;

MUSCATINE *    MOCLDY    48  43  81 N6        29.96S
QUAD CITIES    MOCLDY    52  46  80 NW6       29.95R
6HR MIN TEMP:  52; 6HR MAX TEMP:  60; 6HR PCP:  0.01;

$$

IAZ062-063-075>077-085>089-095>099-211300-
   SOUTHEAST IOWA

CITY           SKY/WX    TMP DP  RH WIND       PRES   REMARKS
BURLINGTON     CLOUDY    52  49  89 N13       29.95R
6HR MIN TEMP:  52; 6HR MAX TEMP:  58; 6HR PCP: TRACE;

FAIRFIELD *    CLOUDY    43  41  93 N6        29.95F
KEOKUK *       CLOUDY    54  50  87 N8G16     29.95R
OTTUMWA        CLOUDY    42  41  96 CALM      29.96R FOG
6HR MIN TEMP:  41; 6HR MAX TEMP:  58;

WASHINGTON *   PTCLDY    43  41  93 NW5       29.97F
$$

ABBREVIATIONS USED IN REMARKS
   TC - TEMPERATURES IN CELSIUS
  WCI - WIND CHILL INDEX
   HX - HEAT INDEX
  VSB - VISIBILITY
$$




USA.gov is the U.S. government's official web portal to all federal, state and local government web resources and services.